Wind_Speed
7 7 8 8 8 7 7 7 8 8 9 9 10 10 10 11 12 12 13 14 14 14 15 15 15 16 16 17 17 17 16 17 17 18 18 17 18 19 20 20 21 20 21
7 8 8 9 9 9 8 8 9 9 10 10 11 11 12 12 13 13 14 14 15 16 16 16 16 16 16 16 17 17 16 17 17 18 19 19 19 19 20 20 21 21 22
8 9 9 10 9 9 10 10 11 11 11 11 11 12 13 13 14 14 14 15 15 16 16 17 16 17 17 17 17 17 16 17 17 18 19 20 21 21 21 21 22 23 24
10 10 10 11 11 11 11 11 12 12 12 12 13 13 14 15 15 15 16 16 16 17 17 17 16 16 17 17 17 18 18 19 19 20 21 21 21 21 22 22 23 24 24
11 12 12 12 12 13 13 13 12 13 13 14 14 15 15 16 16 16 16 17 18 18 18 17 17 17 17 18 19 20 20 20 21 21 21 22 22 22 22 23 23 24 24
14 14 14 14 14 15 14 14 14 14 15 15 16 16 17 17 18 18 17 18 18 18 19 19 18 18 18 19 20 21 21 21 21 22 23 23 23 22 22 22 23 24 25
16 16 16 16 16 16 16 16 16 16 17 17 18 18 18 18 18 19 19 19 19 19 20 20 20 20 20 20 20 21 22 22 22 22 23 22 22 22 23 24 24 24 25
18 18 18 18 18 18 18 17 17 18 18 19 19 20 20 20 20 20 20 19 19 20 20 21 21 21 21 21 21 22 22 22 22 23 22 22 23 23 24 25 25 25 26
21 20 20 19 19 19 18 18 19 19 20 20 21 21 21 21 21 21 21 21 20 21 21 22 22 22 22 22 22 23 22 22 23 23 23 23 24 24 25 25 26 26 27
23 22 22 21 21 21 20 21 21 21 22 22 22 22 21 21 21 22 22 21 21 22 22 22 21 22 22 23 23 24 24 24 24 24 24 25 25 25 25 26 27 28 28
24 24 24 24 24 23 22 23 23 23 23 24 24 24 24 23 22 22 22 22 22 22 22 22 22 22 23 24 24 24 24 25 25 25 25 25 26 26 26 26 27 28 29
24 25 25 25 25 24 24 25 25 25 25 25 24 24 24 24 23 23 23 22 22 22 22 22 23 24 25 25 25 25 25 26 26 27 27 27 27 27 28 29 30 31 31
25 26 26 26 26 26 26 27 26 26 26 26 25 25 26 25 25 24 23 22 23 23 23 23 24 25 26 26 26 26 26 27 27 28 28 28 28 29 29 30 31 32 32
26 26 27 28 27 27 28 28 28 27 28 27 26 26 26 26 25 24 24 24 24 24 24 25 25 26 27 27 27 27 27 28 28 29 29 29 30 30 30 30 31 31 32
28 28 29 29 29 29 28 28 28 28 28 27 26 26 26 26 25 25 25 25 25 26 26 26 27 28 28 28 27 28 28 28 29 30 30 30 31 31 31 31 31 31 32
30 31 31 31 31 30 28 28 28 28 28 27 27 27 26 26 25 25 26 27 28 28 28 28 28 28 28 28 28 28 29 29 30 30 30 31 31 32 31 32 32 32 32
30 30 30 30 29 30 30 28 28 28 28 28 26 26 26 26 26 27 28 28 29 29 28 28 29 29 29 28 28 29 29 30 30 30 31 31 31 31 31 32 32 32 32
29 29 29 29 29 29 29 29 29 29 28 28 28 27 27 27 27 28 29 29 30 29 29 30 29 29 29 29 29 30 30 30 30 31 32 32 32 32 32 32 32 32 32
31 30 29 29 29 30 30 30 30 29 28 29 29 28 28 29 29 29 30 30 30 30 31 30 29 29 29 29 30 30 30 30 31 32 32 33 33 33 32 32 32 32 32
32 31 30 31 30 30 30 30 30 29 29 29 30 29 29 29 30 31 31 31 31 30 29 29 29 29 29 30 30 30 30 31 32 32 33 32 32 32 33 32 32 31 31
32 31 31 31 30 30 30 30 30 30 30 30 31 31 30 30 31 31 31 30 29 29 29 29 30 30 30 30 30 31 32 32 33 33 33 32 32 32 32 32 32 31 31
32 32 31 31 31 31 31 31 31 31 31 31 32 32 31 31 31 30 30 30 29 28 28 29 30 29 30 30 31 32 32 33 33 32 32 32 32 32 32 31 30 30 30
31 31 30 31 31 31 31 31 31 32 33 33 33 32 31 31 31 30 30 29 29 29 29 29 30 30 30 31 31 32 32 32 32 31 31 31 31 31 31 30 30 30 30
30 30 30 30 31 31 32 32 32 32 32 32 32 32 31 30 30 29 29 28 28 29 30 30 30 30 30 30 30 31 31 31 31 30 30 30 29 30 30 30 29 29 29
31 32 32 32 31 31 31 31 31 31 31 31 31 31 30 30 29 29 29 29 29 29 29 29 29 29 29 29 29 30 30 30 29 29 29 29 28 28 28 29 29 29 29
31 31 31 30 30 30 30 30 30 31 31 31 31 30 29 29 29 28 28 29 29 29 28 28 29 29 29 28 28 28 28 28 28 28 28 28 28 28 29 29 29 28 28
Wind_Direction
340 340 341 342 342 337 330 329 330 328 326 326 324 323 322 321 319 317 316 314 314 314 314 313 312 309 307 305 302 300 299 297 294 294 295 293 293 292 291 290 288 287 287
330 329 331 334 335 338 331 324 323 323 323 323 323 323 322 320 319 319 318 318 317 318 317 316 310 306 307 307 305 302 298 296 295 295 296 296 296 294 294 293 290 288 286
318 318 320 324 326 330 327 322 320 320 321 321 322 322 321 321 321 320 318 317 316 317 316 315 312 309 307 306 305 304 300 298 299 299 297 297 297 295 294 292 289 288 286
308 311 315 316 315 316 319 319 317 317 319 321 320 318 317 318 318 318 318 319 320 319 318 315 314 312 310 306 305 303 300 299 298 299 298 297 297 295 294 293 292 290 290
300 304 308 311 311 311 312 312 312 314 316 318 318 317 316 316 315 316 316 317 317 318 318 317 313 312 311 309 306 304 300 300 300 300 299 299 299 298 296 295 294 293 293
294 297 302 307 309 308 307 306 307 308 311 313 314 314 313 313 311 312 311 311 313 314 316 315 312 310 309 308 305 305 303 302 302 301 301 300 299 299 300 298 297 295 294
289 294 300 302 304 303 303 302 303 304 306 309 310 310 310 310 310 309 309 309 309 310 311 312 309 308 306 306 307 307 307 305 302 302 301 300 299 300 299 298 297 296 296
287 290 294 296 296 297 298 299 299 300 303 305 306 306 306 306 306 307 306 305 306 307 309 311 310 310 308 308 309 310 309 308 306 303 301 300 298 299 299 299 298 297 297
283 285 288 289 291 292 292 294 295 298 300 302 302 303 303 303 304 305 303 301 302 305 307 309 310 308 308 308 309 309 309 308 305 304 302 300 299 300 299 299 300 300 299
278 281 283 285 287 287 287 290 292 295 296 298 300 300 300 301 302 302 303 303 301 302 304 307 308 307 307 307 308 308 308 308 306 305 304 302 301 300 300 300 300 299 300
274 278 282 285 288 287 288 291 292 293 294 295 296 296 297 298 300 303 303 303 302 301 303 305 306 307 307 308 308 308 308 307 305 305 305 305 303 301 301 301 301 299 300
273 277 279 282 284 286 287 288 289 291 293 296 297 296 299 300 299 301 301 302 302 301 301 303 305 306 307 307 307 307 306 304 303 302 303 303 303 302 301 301 301 301 301
271 275 279 281 282 283 284 284 287 289 291 294 295 295 296 297 297 299 299 300 301 301 302 303 304 304 305 307 307 306 305 304 303 302 302 302 302 302 301 302 302 302 303
272 274 278 280 280 281 282 283 285 286 289 292 294 294 294 295 295 295 297 297 299 299 300 301 302 303 304 304 305 304 304 303 302 302 301 302 303 303 303 303 303 303 303
273 273 275 278 280 281 280 282 283 284 287 289 291 292 292 293 293 293 295 296 296 297 297 297 299 300 301 303 303 302 303 303 303 303 302 302 304 304 303 303 303 303 302
275 275 276 277 277 278 281 282 283 285 285 287 289 290 291 291 292 293 295 295 296 296 296 297 297 299 299 300 301 302 302 303 303 303 305 304 304 304 304 304 304 303 303
274 274 275 276 277 276 278 280 282 283 284 286 287 288 290 291 292 294 295 295 295 295 297 298 298 298 299 300 300 301 303 303 304 304 304 305 306 305 304 304 304 304 303
272 272 273 274 274 274 276 278 280 281 282 284 286 288 290 292 293 294 295 296 296 297 298 300 300 299 299 300 302 303 303 304 304 304 304 304 304 304 305 305 305 304 304
270 270 271 273 274 275 277 278 279 281 282 284 285 287 289 291 292 294 295 295 296 297 299 299 300 300 300 301 302 304 305 305 306 306 305 304 303 303 304 304 305 304 303
269 269 269 271 273 275 277 279 280 280 281 283 286 287 288 290 292 294 295 295 295 296 298 299 300 301 301 302 303 304 305 305 306 306 306 305 305 305 304 303 304 303 303
269 270 270 271 272 274 277 278 279 280 282 283 285 287 288 289 291 293 294 294 294 296 298 299 301 302 302 303 304 304 305 305 306 305 306 306 306 306 306 305 304 303 303
269 269 269 272 272 274 276 277 278 280 281 283 285 286 287 288 290 292 293 293 293 296 299 301 302 301 302 303 304 304 305 306 306 305 305 306 307 307 307 307 306 305 305
267 268 270 272 274 275 276 277 278 279 280 282 285 285 285 286 288 290 292 292 293 295 298 301 301 301 303 304 304 305 306 306 306 306 307 308 309 308 308 308 308 308 307
268 271 272 273 273 274 275 277 278 279 280 281 283 284 284 285 287 289 290 291 293 294 297 299 300 302 303 304 305 306 306 307 307 308 309 309 311 311 311 311 310 309 308
269 271 272 273 273 275 276 277 278 279 280 281 282 283 284 284 286 288 289 290 292 295 297 298 300 302 303 304 304 305 307 307 308 308 310 312 313 313 312 312 311 311 310
270 272 273 272 273 275 277 277 278 279 280 280 281 282 283 284 285 287 289 290 292 294 296 297 299 301 302 303 304 306 307 308 308 309 310 311 313 313 313 313 313 313 312
Height
5896 5895 5894 5893 5892 5890 5889 5888 5887 5886 5884 5883 5882 5880 5879 5878 5876 5874 5872 5870 5868 5866 5864 5862 5860 5859 5857 5855 5853 5852 5850 5849 5847 5845 5844 5842 5841 5839 5838 5836 5835 5833 5832
5895 5894 5893 5892 5891 5889 5888 5887 5886 5884 5883 5881 5880 5878 5877 5875 5874 5872 5870 5868 5865 5863 5861 5859 5857 5855 5854 5852 5850 5848 5846 5845 5843 5841 5840 5838 5836 5834 5833 5831 5830 5828 5826
5893 5892 5891 5890 5889 5888 5887 5885 5884 5883 5881 5879 5878 5876 5874 5873 5871 5869 5867 5865 5863 5860 5858 5856 5854 5852 5850 5848 5846 5844 5842 5840 5839 5837 5835 5833 5831 5829 5828 5826 5824 5822 5820
5891 5890 5889 5888 5887 5886 5885 5883 5882 5880 5879 5877 5875 5874 5872 5870 5868 5866 5864 5862 5860 5857 5855 5853 5851 5849 5847 5844 5842 5840 5838 5836 5834 5832 5830 5828 5826 5824 5822 5820 5818 5816 5814
5888 5888 5887 5886 5885 5883 5882 5881 5880 5878 5876 5875 5873 5871 5869 5867 5865 5863 5861 5859 5857 5855 5852 5850 5847 5845 5843 5840 5838 5836 5834 5832 5830 5827 5825 5823 5821 5819 5817 5815 5812 5810 5808
5885 5885 5883 5882 5882 5880 5879 5878 5877 5875 5874 5872 5870 5868 5866 5864 5862 5860 5858 5856 5853 5851 5849 5846 5844 5841 5839 5836 5834 5832 5829 5827 5824 5822 5820 5818 5815 5813 5811 5809 5806 5804 5802
5882 5881 5880 5879 5878 5877 5876 5875 5873 5872 5870 5869 5867 5865 5863 5861 5859 5856 5854 5852 5849 5847 5845 5842 5840 5837 5835 5832 5829 5827 5824 5821 5819 5817 5814 5812 5810 5808 5806 5803 5800 5798 5796
5878 5877 5876 5875 5874 5873 5872 5871 5869 5868 5866 5865 5863 5861 5859 5857 5854 5852 5850 5847 5845 5843 5840 5838 5835 5832 5829 5827 5825 5822 5819 5816 5814 5811 5809 5807 5804 5801 5799 5797 5794 5791 5789
5872 5872 5871 5870 5869 5868 5867 5866 5865 5863 5862 5860 5858 5856 5854 5852 5849 5847 5844 5842 5840 5838 5835 5833 5830 5827 5825 5822 5820 5817 5814 5811 5808 5806 5803 5800 5798 5795 5792 5790 5787 5785 5781
5866 5866 5865 5865 5864 5863 5862 5860 5859 5858 5857 5855 5853 5851 5849 5847 5844 5842 5839 5837 5835 5832 5830 5827 5825 5822 5820 5817 5814 5811 5808 5805 5803 5800 5797 5794 5792 5789 5786 5783 5780 5777 5774
5860 5859 5859 5859 5858 5857 5856 5855 5853 5852 5851 5849 5847 5845 5843 5841 5839 5836 5834 5832 5829 5827 5825 5822 5819 5817 5814 5811 5808 5805 5802 5800 5797 5794 5791 5788 5785 5782 5779 5776 5772 5769 5766
5853 5852 5852 5852 5851 5850 5849 5849 5847 5846 5844 5843 5841 5838 5836 5834 5832 5830 5828 5826 5824 5821 5819 5816 5814 5811 5808 5805 5802 5799 5796 5793 5790 5787 5784 5781 5778 5775 5772 5768 5764 5761 5757
5845 5845 5845 5844 5844 5843 5843 5842 5840 5839 5838 5836 5834 5832 5830 5829 5826 5824 5822 5820 5818 5815 5813 5810 5808 5805 5802 5799 5796 5793 5789 5786 5783 5780 5777 5774 5771 5767 5764 5760 5756 5752 5748
5837 5837 5837 5837 5836 5835 5835 5834 5833 5832 5831 5829 5828 5826 5824 5822 5820 5818 5816 5814 5811 5809 5806 5804 5801 5798 5795 5792 5789 5786 5783 5779 5776 5773 5770 5766 5763 5759 5756 5752 5748 5744 5740
5828 5829 5829 5828 5828 5827 5826 5826 5825 5824 5823 5822 5821 5819 5817 5815 5813 5811 5809 5807 5804 5802 5799 5796 5794 5791 5788 5785 5782 5779 5775 5772 5769 5765 5762 5758 5755 5751 5747 5744 5740 5736 5732
5820 5820 5820 5820 5819 5819 5818 5817 5817 5816 5815 5814 5813 5811 5809 5808 5806 5804 5802 5799 5797 5794 5791 5788 5785 5782 5779 5777 5774 5771 5768 5764 5761 5757 5753 5750 5746 5742 5739 5735 5731 5727 5723
5811 5811 5811 5811 5811 5811 5811 5810 5809 5808 5807 5806 5805 5803 5802 5800 5798 5796 5794 5792 5789 5786 5783 5780 5777 5774 5772 5769 5766 5763 5760 5757 5753 5749 5745 5742 5738 5734 5730 5726 5722 5718 5714
5802 5802 5802 5802 5803 5803 5802 5802 5801 5800 5799 5798 5797 5795 5794 5792 5791 5788 5786 5783 5780 5777 5775 5772 5769 5766 5763 5760 5757 5755 5752 5748 5745 5741 5737 5733 5729 5725 5721 5717 5713 5709 5705
5793 5794 5794 5794 5794 5794 5794 5793 5793 5792 5791 5790 5789 5787 5786 5784 5782 5780 5777 5775 5772 5769 5767 5764 5761 5759 5756 5752 5749 5746 5743 5740 5736 5732 5728 5724 5720 5716 5712 5708 5704 5700 5696
5784 5784 5784 5785 5785 5785 5785 5784 5784 5783 5782 5781 5780 5779 5778 5776 5774 5771 5769 5766 5764 5761 5759 5756 5754 5751 5748 5745 5741 5738 5735 5731 5728 5724 5720 5715 5711 5707 5703 5699 5695 5691 5688
5774 5775 5775 5775 5775 5776 5776 5775 5775 5774 5773 5772 5771 5770 5769 5767 5765 5763 5761 5758 5756 5753 5751 5748 5745 5742 5739 5736 5733 5729 5726 5722 5719 5715 5711 5707 5703 5699 5694 5690 5686 5682 5678
5764 5765 5765 5765 5765 5766 5766 5766 5765 5765 5764 5763 5762 5761 5759 5757 5756 5754 5752 5750 5747 5745 5742 5740 5737 5734 5731 5728 5724 5721 5717 5713 5710 5706 5702 5698 5694 5690 5686 5682 5678 5674 5670
5754 5754 5755 5755 5756 5756 5756 5756 5755 5755 5754 5753 5752 5751 5750 5748 5747 5745 5743 5741 5739 5737 5734 5731 5729 5726 5722 5719 5716 5712 5709 5705 5701 5697 5693 5690 5686 5681 5677 5673 5669 5666 5662
5744 5745 5745 5746 5746 5746 5746 5746 5745 5745 5744 5743 5742 5741 5740 5739 5738 5736 5734 5732 5730 5728 5726 5723 5720 5717 5714 5711 5707 5704 5700 5696 5693 5689 5685 5681 5677 5673 5669 5665 5662 5658 5654
5734 5735 5735 5736 5736 5736 5736 5736 5736 5735 5735 5734 5733 5732 5731 5730 5728 5727 5726 5724 5722 5720 5717 5715 5712 5709 5706 5703 5699 5696 5692 5689 5685 5681 5678 5674 5670 5666 5662 5658 5654 5650 5647
5724 5725 5725 5726 5726 5727 5726 5726 5726 5726 5725 5724 5723 5722 5721 5720 5719 5718 5717 5715 5713 5711 5709 5706 5704 5701 5698 5695 5692 5688 5685 5681 5677 5674 5670 5667 5663 5659 5655 5651 5647 5643 5639